Observer details:
170 Observatorio de Begues.  Observer J. Manteca.  0.31-m f/6.3
    Schmidt-Cassegrain + CCD.
204 Schiaparelli Observatory.  Observers L. Buzzi, A. Aletti.  0.60-m f/4.64
    reflector.
213 Observatorio Montcabre.  Observer R. Naves.  Measurer M. Campas.  0.30-m
    f/6.5 Schmidt-Cassegrain + CCD.
232 Masquefa Observatory.  Observer E. Reina.  0.25-m f/3.3 Schmidt-Cassegrain
    + CCD.
333 Desert Eagle Observatory.  Observer W. K. Y. Yeung.  0.45-m f/3
    Schmidt-Cassegrain + CCD.
442 Gualba Observatory.  Observer A. Sanchez.  0.31-m f/3.3 Schimdt-Cassegrain
    + CCD.
458 Guadarrama Observatory.  Observer D. Rodriguez.  0.20-m f/10
    Schmidt-Cassegrain + CCD.
619 Sabadell.  Observers R. Josa, J. Martinez.  0.50-m f/4 reflector.
704 Lincoln Laboratory ETS, New Mexico.  Observers M. Blythe, F. Shelly,
    M. Bezpalko, R. Huber, L. Manguso, S. Adams, D. Torres, T. Brothers,
    S. Partridge.  Measurers J. Stuart, R. Sayer, J. Evans, P. Hopman.  1.0-m
    f/2.15 reflector + CCD.
726 Brainerd.  Observer J. Wentworth.  0.280-m Schmidt-Cassegrain + CCD.
750 Hobbs Observatory, Fall Creek.  Observer R. Elliott.  0.6-m f/5 reflector
    + CCD.
785 Fitz-Randolph Observatory, Princeton.  Observer A. J. Willman.  0.91-m
    Cassegrain + CCD.
921 SW Institute for Space Research, Cloudcroft.  Observer A. Hale.  0.20-m
    Schmidt-Cassegrain + CCD.
939 Observatorio Rodeno.  Observer J. Castellano.  0.20-m f/10
    Schmidt-Cassegrain + CCD.
A46 Lelekovice.  Observer K. Hornoch.  0.35-m f/4.7 reflector + CCD.
H43 Conway.  Observers P. C. Sherrod, B. M. Sherrod.  0.31-m f/3.75
    Schmidt-Cassegrain + CCD.
J91 Alt emporda Observatory, Figueres.  Observer C. Pineda.  0.25-m f/4.0
    Schmidt-Cassegrain + CCD.
J97 Alginet.  Observer T. Climent G.  0.25-m f/4 Schmidt-Cassegrain + CCD.

Orbital elements:
    C/2002 V1 (NEAT)
T 2003 Feb. 18.2977 TT                                  MPC
q   0.099318             (2000.0)            P               Q
                   Peri.  152.1524      -0.4462800      -0.0908718
                   Node    64.0845      -0.8868883      -0.0878549
e   1.0            Incl.   81.8108      +0.1194296      -0.9919798
From 449 observations 2002 Nov. 6-Dec. 9.

Brian G. Marsden             (C) Copyright 2002 MPC           M.P.E.C. 2002-X57

Read MPEC 2002-X56 Read MPEC 2002-X58


Our Web policy. Index to the CBAT/MPC/ICQ pages.

